• In Netherlands
  • List of Countries
  • For 7 days
  • Water Temperature
  • Satellite Maps
  • Weather Map
  • Weather Widgets
  • user-avatar
    Login

    Hourly Weather La Rioja

    Today, 23 March, Thursday

    Time Temperature Precipitation Wind Pressure Humidity
    00:00 +23°C° 0.6 mm 1 mps 717 mmHg 82%
    01:00 +23°C° 0.6 mm 1 mps 717 mmHg 83%
    02:00 +20°C° 0.6 mm 0 mps 717 mmHg 85%
    03:00 +22°C° 0.1 mm 1 mps 717 mmHg 86%
    04:00 +22°C° 0.1 mm 1 mps 717 mmHg 87%
    05:00 +22°C° 0.1 mm 1 mps 717 mmHg 88%
    06:00 +22°C° 0 mm 1 mps 717 mmHg 84%
    07:00 +23°C° 0 mm 1 mps 717 mmHg 80%
    08:00 +24°C° 0 mm 1 mps 717 mmHg 77%
    09:00 +25°C° 0 mm 1 mps 717 mmHg 70%
    10:00 +27°C° 0 mm 2 mps 717 mmHg 63%
    11:00 +28°C° 0 mm 2 mps 717 mmHg 55%
    12:00 +29°C° 0 mm 2 mps 716 mmHg 51%
    13:00 +30°C° 0 mm 3 mps 715 mmHg 47%
    14:00 +33°C° 0 mm 3 mps 715 mmHg 42%
    15:00 +33°C° 0 mm 3 mps 714 mmHg 42%
    16:00 +31°C° 0 mm 3 mps 714 mmHg 41%
    17:00 +31°C° 0 mm 3 mps 713 mmHg 41%
    18:00 +30°C° 0 mm 2 mps 714 mmHg 46%
    19:00 +28°C° 0 mm 2 mps 714 mmHg 52%
    20:00 +26°C° 0 mm 1 mps 714 mmHg 57%
    21:00 +26°C° 0 mm 1 mps 715 mmHg 59%
    22:00 +25°C° 0 mm 1 mps 715 mmHg 62%
    23:00 +25°C° 0 mm 1 mps 716 mmHg 64%

    Tomorrow, 24 March, Friday

    Time Temperature Precipitation Wind Pressure Humidity
    00:00 +24°C° 0 mm 1 mps 715 mmHg 66%
    01:00 +24°C° 0 mm 1 mps 715 mmHg 69%
    02:00 +21°C° 0 mm 0 mps 715 mmHg 71%
    03:00 +23°C° 0 mm 1 mps 715 mmHg 72%
    04:00 +23°C° 0 mm 1 mps 714 mmHg 73%
    05:00 +22°C° 0 mm 1 mps 714 mmHg 74%
    06:00 +23°C° 0 mm 1 mps 715 mmHg 69%
    07:00 +24°C° 0 mm 1 mps 715 mmHg 65%
    08:00 +25°C° 0 mm 1 mps 715 mmHg 60%
    09:00 +27°C° 0 mm 2 mps 715 mmHg 55%
    10:00 +29°C° 0 mm 2 mps 715 mmHg 50%
    11:00 +30°C° 0 mm 2 mps 715 mmHg 45%
    12:00 +31°C° 0 mm 3 mps 714 mmHg 42%
    13:00 +33°C° 0 mm 3 mps 713 mmHg 40%
    14:00 +34°C° 0 mm 3 mps 712 mmHg 37%
    15:00 +34°C° 0 mm 3 mps 712 mmHg 37%
    16:00 +34°C° 0 mm 4 mps 711 mmHg 38%
    17:00 +34°C° 0 mm 4 mps 711 mmHg 38%
    18:00 +31°C° 0 mm 3 mps 711 mmHg 44%
    19:00 +30°C° 0 mm 3 mps 712 mmHg 49%
    20:00 +28°C° 0 mm 2 mps 712 mmHg 55%
    21:00 +28°C° 0.1 mm 2 mps 713 mmHg 59%
    22:00 +27°C° 0.1 mm 2 mps 713 mmHg 64%
    23:00 +26°C° 0.1 mm 2 mps 713 mmHg 68%

    Day after tomorrow, 25 March, Saturday

    Time Temperature Precipitation Wind Pressure Humidity
    00:00 +26°C° 0.2 mm 2 mps 713 mmHg 70%
    01:00 +25°C° 0.2 mm 1 mps 713 mmHg 73%
    02:00 +25°C° 0.2 mm 1 mps 712 mmHg 75%
    03:00 +24°C° 0 mm 1 mps 712 mmHg 76%
    04:00 +24°C° 0 mm 1 mps 712 mmHg 77%
    05:00 +24°C° 0 mm 1 mps 711 mmHg 78%
    06:00 +24°C° 0 mm 1 mps 712 mmHg 75%
    07:00 +25°C° 0 mm 2 mps 712 mmHg 71%
    08:00 +26°C° 0 mm 2 mps 712 mmHg 68%
    09:00 +28°C° 0 mm 2 mps 712 mmHg 62%
    10:00 +29°C° 0 mm 2 mps 712 mmHg 56%
    11:00 +31°C° 0 mm 2 mps 712 mmHg 50%
    12:00 +32°C° 0 mm 2 mps 712 mmHg 46%
    13:00 +34°C° 0 mm 2 mps 711 mmHg 42%
    14:00 +35°C° 0 mm 3 mps 710 mmHg 38%
    15:00 +35°C° 0.1 mm 3 mps 710 mmHg 38%
    16:00 +35°C° 0.1 mm 3 mps 709 mmHg 39%
    17:00 +35°C° 0.1 mm 4 mps 709 mmHg 39%
    18:00 +33°C° 1.3 mm 3 mps 710 mmHg 47%
    19:00 +30°C° 1.3 mm 3 mps 710 mmHg 55%
    20:00 +29°C° 1.3 mm 3 mps 711 mmHg 63%
    21:00 +28°C° 2.1 mm 3 mps 711 mmHg 68%
    22:00 +27°C° 2.1 mm 2 mps 712 mmHg 72%
    23:00 +26°C° 2.1 mm 2 mps 712 mmHg 77%

    26 March, Sunday

    Time Temperature Precipitation Wind Pressure Humidity
    00:00 +26°C° 1 mm 2 mps 712 mmHg 78%
    01:00 +25°C° 1 mm 1 mps 711 mmHg 79%
    02:00 +25°C° 1 mm 1 mps 711 mmHg 80%
    03:00 +25°C° 0.1 mm 1 mps 711 mmHg 81%
    04:00 +24°C° 0.1 mm 1 mps 711 mmHg 82%
    05:00 +24°C° 0.1 mm 1 mps 711 mmHg 83%
    06:00 +25°C° 0 mm 1 mps 711 mmHg 80%
    07:00 +25°C° 0 mm 1 mps 711 mmHg 77%
    08:00 +26°C° 0 mm 1 mps 712 mmHg 74%
    09:00 +27°C° 0 mm 2 mps 712 mmHg 69%
    10:00 +28°C° 0 mm 2 mps 712 mmHg 63%
    11:00 +30°C° 0 mm 2 mps 712 mmHg 57%
    12:00 +31°C° 0 mm 2 mps 711 mmHg 53%
    13:00 +32°C° 0 mm 2 mps 710 mmHg 48%
    14:00 +34°C° 0 mm 3 mps 709 mmHg 43%
    15:00 +34°C° 0 mm 3 mps 709 mmHg 43%
    16:00 +34°C° 0 mm 3 mps 709 mmHg 42%
    17:00 +34°C° 0 mm 3 mps 708 mmHg 42%
    18:00 +33°C° 0.2 mm 3 mps 709 mmHg 49%
    19:00 +30°C° 0.2 mm 2 mps 710 mmHg 55%
    20:00 +29°C° 0.2 mm 2 mps 710 mmHg 62%
    21:00 +28°C° 0.5 mm 2 mps 711 mmHg 66%
    22:00 +27°C° 0.5 mm 2 mps 711 mmHg 71%
    23:00 +27°C° 0.5 mm 1 mps 711 mmHg 75%

    27 March, Monday

    Time Temperature Precipitation Wind Pressure Humidity
    00:00 +26°C° 1 mm 1 mps 711 mmHg 77%
    01:00 +26°C° 1 mm 2 mps 711 mmHg 79%
    02:00 +25°C° 1 mm 2 mps 711 mmHg 80%
    03:00 +25°C° 0.5 mm 2 mps 711 mmHg 82%
    04:00 +25°C° 0.5 mm 1 mps 711 mmHg 83%
    05:00 +24°C° 0.5 mm 1 mps 711 mmHg 85%
    06:00 +25°C° 0.1 mm 1 mps 712 mmHg 82%
    07:00 +25°C° 0.1 mm 1 mps 713 mmHg 79%
    08:00 +26°C° 0.1 mm 1 mps 713 mmHg 77%
    09:00 +28°C° 0.2 mm 2 mps 713 mmHg 69%
    10:00 +29°C° 0.2 mm 2 mps 713 mmHg 61%
    11:00 +31°C° 0.2 mm 2 mps 713 mmHg 53%
    12:00 +32°C° 0.2 mm 2 mps 712 mmHg 49%
    13:00 +34°C° 0.2 mm 3 mps 711 mmHg 44%
    14:00 +35°C° 0.2 mm 3 mps 710 mmHg 40%
    15:00 +34°C° 0.3 mm 3 mps 710 mmHg 41%
    16:00 +34°C° 0.3 mm 4 mps 709 mmHg 42%
    17:00 +34°C° 0.3 mm 4 mps 709 mmHg 43%
    18:00 +31°C° 1.1 mm 3 mps 710 mmHg 52%
    19:00 +29°C° 1.1 mm 3 mps 711 mmHg 62%
    20:00 +28°C° 1.1 mm 2 mps 711 mmHg 71%
    21:00 +27°C° 1.4 mm 2 mps 712 mmHg 73%
    22:00 +26°C° 1.4 mm 1 mps 712 mmHg 76%
    23:00 +26°C° 1.4 mm 1 mps 713 mmHg 79%

    28 March, Tuesday

    Time Temperature Precipitation Wind Pressure Humidity
    00:00 +25°C° 0.6 mm 1 mps 712 mmHg 80%
    01:00 +25°C° 0.6 mm 1 mps 712 mmHg 81%
    02:00 +25°C° 0.6 mm 2 mps 712 mmHg 82%
    03:00 +24°C° 0 mm 2 mps 712 mmHg 82%
    04:00 +24°C° 0 mm 2 mps 712 mmHg 82%
    05:00 +24°C° 0 mm 2 mps 712 mmHg 82%
    06:00 +24°C° 0 mm 2 mps 712 mmHg 80%
    07:00 +25°C° 0 mm 2 mps 713 mmHg 78%
    08:00 +25°C° 0 mm 2 mps 713 mmHg 76%
    09:00 +26°C° 0 mm 3 mps 713 mmHg 71%
    10:00 +28°C° 0 mm 3 mps 713 mmHg 66%
    11:00 +29°C° 0 mm 3 mps 713 mmHg 61%
    12:00 +30°C° 0.1 mm 3 mps 712 mmHg 56%
    13:00 +31°C° 0.1 mm 3 mps 712 mmHg 52%
    14:00 +33°C° 0.1 mm 3 mps 711 mmHg 48%
    15:00 +33°C° 0.1 mm 3 mps 711 mmHg 48%
    16:00 +31°C° 0.1 mm 3 mps 711 mmHg 48%
    17:00 +31°C° 0.1 mm 3 mps 710 mmHg 48%
    18:00 +30°C° 0.2 mm 3 mps 711 mmHg 55%
    19:00 +29°C° 0.2 mm 2 mps 712 mmHg 61%
    20:00 +27°C° 0.2 mm 2 mps 712 mmHg 68%
    21:00 +27°C° 0.7 mm 2 mps 713 mmHg 70%
    22:00 +26°C° 0.7 mm 2 mps 713 mmHg 73%
    23:00 +25°C° 0.7 mm 2 mps 713 mmHg 75%
    Show more